CW2798 Aduanas ES current weather conditions

sailwx.info

Air temperature 24.4° C
Dewpoint 19.7° C

Last reported at 2016-Jun-27 10:30 UTC.
Time now 2016-Jun-27 11:30 UTC

Location: N 38°48' E 000°11'.
View on Google Maps.

See reports from other nearby stations

  
Tides and Currents Weather Stations Pressure Air Temp Water Temp Dewpoint Dewpoint Depression Visibility Wind Speed Wind Dir Waves Ship Positions
date/time (UTC)wind fromknots sea level pressurealtimeterstation pressurevisibilityair tempwater tempwave heightnotes
2016-Jun-27 10:30 24.4
2016-Jun-27 10:15 080 0 gusting 8 24.4
2016-Jun-27 09:45 045 0 gusting 6 24.4
2016-Jun-27 09:30 077 24.4
2016-Jun-27 08:45 066 1 gusting 9 24.4
2016-Jun-27 08:30 055 0 gusting 6 23.9
2016-Jun-27 08:15 082 23.9
2016-Jun-27 07:45 044 2 gusting 6 23.3
2016-Jun-27 07:30 037 2 gusting 8 22.8
2016-Jun-27 07:00 347 22.8
2016-Jun-27 06:45 057 22.8
2016-Jun-27 06:00 22.2
2016-Jun-27 05:45 007 1 gusting 9 22.2
2016-Jun-27 05:15 013 1 gusting 12 22.2
2016-Jun-27 05:00 343 22.2
2016-Jun-27 04:45 349 3 gusting 7 22.2
2016-Jun-27 04:30 005 2 gusting 6 22.2
2016-Jun-27 04:15 357 3 gusting 9 22.2
2016-Jun-27 04:00 357 1 gusting 5 22.2
2016-Jun-27 03:45 340 22.2
2016-Jun-27 03:30 22.2
2016-Jun-27 03:15 21.7
2016-Jun-27 02:45 322 22.2
2016-Jun-27 02:30 358 0 gusting 7 22.2
2016-Jun-27 01:30 349 0 gusting 5 22.2
2016-Jun-27 01:15 341 22.2
2016-Jun-27 01:00 22.2
2016-Jun-27 00:45 22.2
2016-Jun-26 23:45 22.8
2016-Jun-26 23:30 22.8
2016-Jun-26 23:00 23.3
2016-Jun-26 22:45 23.3
2016-Jun-26 22:30 23.3
2016-Jun-26 22:15 23.3
2016-Jun-26 21:30 22.8
2016-Jun-26 21:00 22.8
2016-Jun-26 20:30 357 23.3
2016-Jun-26 20:15 356 23.3
2016-Jun-26 20:00 23.3
2016-Jun-26 19:45 23.3
2016-Jun-26 19:30 23.3
2016-Jun-26 19:00 060 0 gusting 6 23.3
2016-Jun-26 18:30 23.9
2016-Jun-26 17:15 045 2 gusting 9 24.4
2016-Jun-26 17:00 046 3 gusting 10 24.4
2016-Jun-26 16:45 042 4 gusting 9 24.4
2016-Jun-26 16:30 056 3 gusting 9 24.4
2016-Jun-26 16:00 062 2 gusting 5 24.4
2016-Jun-26 15:45 061 2 gusting 9 25.0
2016-Jun-26 15:15 069 0 gusting 6 24.4
2016-Jun-26 15:00 087 0 gusting 5 25.0
2016-Jun-26 14:45 098 0 gusting 3 24.4
2016-Jun-26 14:30 092 25.0
2016-Jun-26 14:15 089 0 gusting 4 25.0
2016-Jun-26 14:00 094 2 gusting 6 24.4
2016-Jun-26 13:30 087 2 gusting 8 24.4
2016-Jun-26 13:15 077 1 gusting 7 25.0
2016-Jun-26 12:45 074 4 gusting 10 24.4
2016-Jun-26 12:30 083 5 gusting 10 24.4
2016-Jun-26 12:15 085 4 gusting 11 24.4
2016-Jun-26 12:00 079 4 gusting 11 24.4
2016-Jun-26 11:45 079 2 gusting 8 25.0
2016-Jun-26 11:00 033 2 gusting 6 25.0
2016-Jun-26 10:45 050 3 gusting 11 24.4
2016-Jun-26 10:30 010 4 gusting 4 24.4
2016-Jun-26 10:15 002 6 gusting 10 23.9
2016-Jun-26 10:00 009 5 gusting 10 23.9
2016-Jun-26 09:30 013 5 gusting 7 23.9
2016-Jun-26 09:00 006 6 gusting 9 23.9
2016-Jun-26 08:45 358 1 gusting 9 24.4
2016-Jun-26 08:30 039 1 gusting 6 23.9
2016-Jun-26 08:15 347 4 gusting 8 23.9
2016-Jun-26 08:00 048 4 gusting 12 23.3
2016-Jun-26 07:30 23.3
2016-Jun-26 07:15 23.3
2016-Jun-26 07:00 331 1 gusting 2 23.3
2016-Jun-26 06:45 23.3
2016-Jun-26 06:15 043 22.8
2016-Jun-26 06:00 22.8
2016-Jun-26 05:15 332 0 gusting 4 22.2
2016-Jun-26 05:00 334 4 gusting 10 22.2
2016-Jun-26 04:30 335 4 gusting 10 22.2
2016-Jun-26 04:15 345 6 gusting 11 22.2
2016-Jun-26 04:00 338 5 gusting 9 22.2
2016-Jun-26 03:45 319 6 gusting 13 22.2
2016-Jun-26 03:30 325 6 gusting 12 22.2
2016-Jun-26 02:45 324 5 gusting 9 22.2
2016-Jun-26 02:15 332 4 gusting 8 22.2
2016-Jun-26 02:00 332 4 gusting 8 22.2
2016-Jun-26 01:45 334 4 gusting 9 22.2
2016-Jun-26 01:15 22.2
2016-Jun-26 01:00 337 1 gusting 5 22.2
2016-Jun-26 00:00 344 2 gusting 8 22.2
2016-Jun-25 23:30 346 2 gusting 7 22.2
2016-Jun-25 22:15 343 2 gusting 7 22.8
2016-Jun-25 22:00 359 1 gusting 6 22.8
2016-Jun-25 21:15 349 0 gusting 6 22.8
2016-Jun-25 20:45 353 23.3
2016-Jun-25 20:30 23.3
2016-Jun-25 20:15 23.3
2016-Jun-25 20:00 001 23.3
2016-Jun-25 19:45 350 23.3
2016-Jun-25 19:30 23.3
2016-Jun-25 19:00 009 0 gusting 6 23.3
2016-Jun-25 18:15 006 1 gusting 6 23.9
2016-Jun-25 17:30 008 2 gusting 8 24.4
2016-Jun-25 17:15 358 2 gusting 7 25.0
2016-Jun-25 17:00 030 1 gusting 6 25.0
2016-Jun-25 16:45 031 25.0
2016-Jun-25 16:15 082 0 gusting 6 24.4
2016-Jun-25 15:30 078 24.4
2016-Jun-25 15:00 080 0 gusting 4 25.0
2016-Jun-25 14:45 072 1 gusting 5 24.4
2016-Jun-25 14:30 079 0 gusting 8 24.4
2016-Jun-25 14:00 008 8 gusting 13 23.9
2016-Jun-25 13:00 002 9 gusting 18 24.4
2016-Jun-25 12:45 005 7 gusting 15 25.0
2016-Jun-25 12:00 359 9 gusting 19 24.4
2016-Jun-25 11:00 333 7 gusting 13 25.6